User: anonymous   Login
Location: Unspecified
(35.7250°N, 0.0000°E)
Time: 02:18:54
(UTC+00:00)
Language:

A-11 Canister half - Orbit

View from above orbital plane
View from above orbital plane
View from above satellite
View from above satellite

Ground track
Ground track

The orbit data is extracted from the following two-line orbital elements,

1    53U 60009E   19175.16376733 -.00000143  00000-0 -55997-3 0  9990
2    53  47.2766 286.9594 0098912 100.5012 260.6939 12.17228769624803
Epoch (UTC): 24 June 2019 03:55:49
Eccentricity: 0.0098912
inclination: 47.2766°
perigee height: 1525 km
apogee height: 1683 km
right ascension of ascending node: 286.9594°
argument of perigee: 100.5012°
revolutions per day: 12.17228769
mean anomaly at epoch: 260.6939°
orbit number at epoch: 62480

The dashed part of the orbit path shows where the satellite is in the earth's shadow,  

DLR